Tracking 35275 objects as of 8-Sep-2026
HD Live streaming from Space Station
objects crossing your sky now

SL-8 DEB

Track SL-8 DEB now!
10-day predictions


NORAD ID: 1392
Int'l Code: 1965-020AH
Launch date: March 15, 1965
Source: Commonwealth of Independent States (former USSR) (CIS)
Launch site: TYURATAM MISSILE AND SPACE COMPLEX (TTMTR)

Note: This is SATELLITE DEBRIS
Your satellite tracking list
Your tracking list is empty




NASA's NSSDC Master Catalog

Two Line Element Set (TLE):
1 01392U 65020AH  26250.65495097  .00031810  00000-0  10537-2 0  9999
2 01392  55.8357 228.1327 0108374 238.6813 120.3576 15.25549996108692
Source of the keplerian elements: AFSPC